Canadian, TX

3:53 AM CDT on April 23, 2017 (GMT -0500)
Hemphill County

Weather History for KHHF - January, 2012

Change the Weather History Date:

Thursday, January 12, 2012

  Actual Average (KPPA) Record (KPPA)
Temperature  
Mean Temperature 32 °F -  
Max Temperature 42 °F 45 °F 70 °F (2014)
Min Temperature 23 °F 20 °F 3 °F (1977)
Degree Days  
Heating Degree Days 32    
Moisture  
Dew Point 3 °F    
Average Humidity 32    
Maximum Humidity 54    
Minimum Humidity 15    
Precipitation  
Precipitation 0.00 in - - ()
Sea Level Pressure  
Sea Level Pressure 30.17 in    
Wind  
Wind Speed 16 mph (NW)    
Max Wind Speed 30 mph    
Max Gust Speed 38 mph    
Visibility 10 miles    
Events      
Averages and records for this station are not official NWS values.
T = Trace of Precipitation, MM = Missing Value Source: NWS Daily Summary

Daily Weather History Graph

Daily Weather History Graph

Search for Another Location

Airport or City:

Trip Planner

Search our weather history database for the weather conditions in past years. The results will help you decide how hot, cold, wet, or windy it might be!

Date:

Astronomy

Jan. 12, 2012 Rise Set
Actual Time 7:52 AM CST 5:47 PM CST
Civil Twilight 7:23 AM CST 6:15 PM CST
Nautical Twilight 6:52 AM CST 6:47 PM CST
Astronomical Twilight 6:21 AM CST 7:18 PM CST
Moon 9:45 PM CST (1/12) 9:45 AM CST (1/12)
Length of Visible Light 10h 51m
Length of Day
9h 55m
Waning Gibbous, 87% of the Moon is Illuminated
Jan 12
Waning Gibbous
Jan 16
Last Quarter
Jan 23
New
Jan 30
First Quarter
Feb 7
Full

Hourly Weather History & Observations

Time (CST) Temp. Windchill Dew Point Humidity Pressure Visibility Wind Dir Wind Speed Gust Speed Precip Events Conditions
12:15 AM 28.4 °F 19.1 °F 8.6 °F 43% 30.19 in 10.0 mi NNW 10.4 mph - N/A   Clear
12:35 AM 28.4 °F 18.0 °F 6.8 °F 40% 30.20 in 10.0 mi NNW 12.7 mph - N/A   Clear
12:55 AM 28.4 °F 18.0 °F 5.0 °F 37% 30.21 in 10.0 mi NNW 12.7 mph - N/A   Clear
1:15 AM 26.6 °F 16.2 °F 5.0 °F 40% 30.21 in 10.0 mi NNW 11.5 mph - N/A   Clear
1:35 AM 26.6 °F 16.8 °F 6.8 °F 43% 30.21 in 10.0 mi NW 10.4 mph - N/A   Clear
1:55 AM 26.6 °F 13.1 °F 1.4 °F 34% 30.21 in 10.0 mi North 19.6 mph 29.9 mph N/A   Clear
2:15 AM 26.6 °F 14.3 °F -0.4 °F 31% 30.21 in 10.0 mi NNW 16.1 mph 23.0 mph N/A   Clear
2:35 AM 26.6 °F 14.3 °F 1.4 °F 34% 30.21 in 10.0 mi NNW 16.1 mph 21.9 mph N/A   Clear
2:55 AM 24.8 °F 12.4 °F 1.4 °F 36% 30.22 in 10.0 mi NNW 15.0 mph 23.0 mph N/A   Clear
3:15 AM 24.8 °F 11.1 °F 1.4 °F 36% 30.21 in 10.0 mi NNW 18.4 mph 23.0 mph N/A   Clear
3:35 AM 23.0 °F 11.7 °F 1.4 °F 39% 30.21 in 10.0 mi NNW 11.5 mph - N/A   Clear
3:55 AM 23.0 °F 9.6 °F 3.2 °F 43% 30.21 in 10.0 mi NNW 16.1 mph 23.0 mph N/A   Clear
4:35 AM 23.0 °F 11.7 °F 5.0 °F 46% 30.22 in 10.0 mi NW 11.5 mph 17.3 mph N/A   Clear
5:15 AM 23.0 °F 11.1 °F 5.0 °F 46% 30.21 in 10.0 mi WNW 12.7 mph - N/A   Clear
5:35 AM 23.0 °F 10.6 °F 6.8 °F 50% 30.21 in 10.0 mi WNW 13.8 mph - N/A   Clear
5:55 AM 23.0 °F 10.1 °F 6.8 °F 50% 30.21 in 10.0 mi WNW 15.0 mph - N/A   Clear
6:15 AM 23.0 °F 9.6 °F 6.8 °F 50% 30.21 in 10.0 mi NW 16.1 mph - N/A   Clear
6:35 AM 23.0 °F 8.7 °F 6.8 °F 50% 30.21 in 10.0 mi NW 18.4 mph 25.3 mph N/A   Clear
6:55 AM 23.0 °F 9.2 °F 6.8 °F 50% 30.22 in 10.0 mi WNW 17.3 mph 24.2 mph N/A   Clear
7:15 AM 23.0 °F 8.3 °F 6.8 °F 50% 30.22 in 10.0 mi WNW 19.6 mph 24.2 mph N/A   Clear
7:35 AM 23.0 °F 8.3 °F 6.8 °F 50% 30.21 in 10.0 mi WNW 19.6 mph 25.3 mph N/A   Clear
7:55 AM 23.0 °F 8.3 °F 5.0 °F 46% 30.21 in 10.0 mi NW 19.6 mph 24.2 mph N/A   Clear
8:15 AM 23.0 °F 8.7 °F 5.0 °F 46% 30.20 in 10.0 mi NW 18.4 mph 21.9 mph N/A   Clear
8:35 AM 24.8 °F 10.3 °F 3.2 °F 40% 30.21 in 10.0 mi NW 20.7 mph 27.6 mph N/A   Clear
9:15 AM 28.4 °F 15.1 °F 3.2 °F 34% 30.21 in 10.0 mi NNW 20.7 mph 26.5 mph N/A   Clear
9:35 AM 28.4 °F 14.7 °F 3.2 °F 34% 30.22 in 10.0 mi NW 21.9 mph 26.5 mph N/A   Clear
9:55 AM 30.2 °F 17.8 °F 3.2 °F 32% 30.22 in 10.0 mi NNW 19.6 mph 29.9 mph N/A   Clear
10:15 AM 32.0 °F 17.6 °F 1.4 °F 27% 30.22 in 10.0 mi NNW 29.9 mph 38.0 mph N/A   Clear
10:35 AM 32.0 °F 18.4 °F -0.4 °F 25% 30.22 in 10.0 mi NNW 26.5 mph 36.8 mph N/A   Clear
10:55 AM 32.0 °F 17.9 °F -0.4 °F 25% 30.22 in 10.0 mi NNW 28.8 mph 38.0 mph N/A   Clear
11:15 AM 33.8 °F 21.6 °F -0.4 °F 23% 30.21 in 10.0 mi NNW 23.0 mph 31.1 mph N/A   Clear
11:35 AM 33.8 °F 21.3 °F -0.4 °F 23% 30.20 in 10.0 mi NNW 24.2 mph 29.9 mph N/A   Clear
11:55 AM 35.6 °F 24.5 °F -2.2 °F 20% 30.19 in 10.0 mi NNW 20.7 mph 32.2 mph N/A   Clear
12:15 PM 37.4 °F 27.2 °F -4.0 °F 17% 30.18 in 10.0 mi NNW 19.6 mph 29.9 mph N/A   Clear
12:35 PM 37.4 °F 25.4 °F -4.0 °F 17% 30.16 in 10.0 mi NW 27.6 mph 32.2 mph N/A   Clear
12:55 PM 37.4 °F 26.6 °F 1.4 °F 22% 30.15 in 10.0 mi NW 21.9 mph 34.5 mph N/A   Clear
1:15 PM 39.2 °F 28.5 °F -0.4 °F 19% 30.14 in 10.0 mi NNW 24.2 mph 36.8 mph N/A   Clear
1:35 PM 41.0 °F 30.5 °F -4.0 °F 15% 30.12 in 10.0 mi NNW 26.5 mph 32.2 mph N/A   Clear
1:55 PM 41.0 °F 31.1 °F -2.2 °F 16% 30.11 in 10.0 mi NNW 23.0 mph 35.7 mph N/A   Clear
2:15 PM 41.0 °F 31.4 °F -0.4 °F 18% 30.11 in 10.0 mi NNW 21.9 mph 32.2 mph N/A   Clear
2:35 PM 42.8 °F 33.1 °F -0.4 °F 16% 30.10 in 10.0 mi NNW 25.3 mph 33.4 mph N/A   Clear
2:55 PM 42.8 °F 33.5 °F 1.4 °F 18% 30.10 in 10.0 mi NW 23.0 mph 32.2 mph N/A   Clear
3:15 PM 42.8 °F 33.1 °F 1.4 °F 18% 30.10 in 10.0 mi NNW 25.3 mph 32.2 mph N/A   Clear
3:35 PM 42.8 °F 33.3 °F 1.4 °F 18% 30.10 in 10.0 mi NW 24.2 mph 29.9 mph N/A   Clear
3:55 PM 42.8 °F 34.3 °F 1.4 °F 18% 30.09 in 10.0 mi NNW 19.6 mph 27.6 mph N/A   Clear
4:15 PM 42.8 °F 34.5 °F 3.2 °F 19% 30.09 in 10.0 mi NNW 18.4 mph 24.2 mph N/A   Clear
4:35 PM 42.8 °F 34.5 °F 3.2 °F 19% 30.09 in 10.0 mi NNW 18.4 mph 25.3 mph N/A   Clear
4:55 PM 42.8 °F 36.2 °F 5.0 °F 21% 30.09 in 10.0 mi NNW 12.7 mph 20.7 mph N/A   Clear
5:15 PM 42.8 °F 35.8 °F 5.0 °F 21% 30.10 in 10.0 mi NNW 13.8 mph 23.0 mph N/A   Clear
5:35 PM 41.0 °F 34.7 °F 6.8 °F 24% 30.10 in 10.0 mi NNW 10.4 mph - N/A   Clear
5:55 PM 37.4 °F 32.1 °F 6.8 °F 28% 30.09 in 10.0 mi NNW 6.9 mph - N/A   Clear
6:15 PM 37.4 °F 33.8 °F 6.8 °F 28% 30.10 in 10.0 mi NW 4.6 mph - N/A   Clear
6:35 PM 35.6 °F - 6.8 °F 30% 30.10 in 10.0 mi Calm Calm - N/A   Clear
6:55 PM 32.0 °F - 6.8 °F 35% 30.11 in 10.0 mi Calm Calm - N/A   Clear
7:15 PM 32.0 °F 28.7 °F 8.6 °F 38% 30.12 in 10.0 mi SSW 3.5 mph - N/A   Clear
7:35 PM 32.0 °F 28.7 °F 6.8 °F 35% 30.12 in 10.0 mi WSW 3.5 mph - N/A   Clear
8:15 PM 30.2 °F - 8.6 °F 40% 30.11 in 10.0 mi Calm Calm - N/A   Clear
8:35 PM 23.0 °F 15.8 °F 8.6 °F 54% 30.12 in 10.0 mi SW 5.8 mph - N/A   Clear
8:55 PM 21.2 °F 16.4 °F 8.6 °F 58% 30.12 in 10.0 mi SSW 3.5 mph - N/A   Clear
9:15 PM 23.0 °F 18.4 °F 8.6 °F 54% 30.13 in 10.0 mi SW 3.5 mph - N/A   Clear
9:35 PM 23.0 °F 18.4 °F 8.6 °F 54% 30.13 in 10.0 mi WSW 3.5 mph - N/A   Clear
9:55 PM 23.0 °F 17.0 °F 10.4 °F 59% 30.13 in 10.0 mi SW 4.6 mph - N/A   Clear
10:15 PM 24.8 °F 20.5 °F 10.4 °F 54% 30.13 in 10.0 mi SW 3.5 mph - N/A   Clear
10:35 PM 23.0 °F 14.7 °F 10.4 °F 59% 30.13 in 10.0 mi WSW 6.9 mph - N/A   Clear
10:55 PM 23.0 °F - 10.4 °F 59% 30.13 in 10.0 mi Calm Calm - N/A   Clear
11:15 PM 23.0 °F 18.4 °F 10.4 °F 59% 30.13 in 10.0 mi WSW 3.5 mph - N/A   Clear
11:35 PM 23.0 °F 18.4 °F 10.4 °F 59% 30.14 in 10.0 mi WSW 3.5 mph - N/A   Clear
11:55 PM 23.0 °F - 10.4 °F 59% 30.13 in 10.0 mi Calm Calm - N/A   Clear